Regional Weather Roundup
Issued by NWS

Home | Current Version | Previous Version | Text Only | Print | Product List | Glossary Off
Versions: 1 2 3 4 5 6 7 8 9 10 11 12 13 14 15 16 17 18 19 20 21 22 23 24 25 26 27 28 29 30 31 32 33 34 35 36 37 38 39 40 41 42 43 44 45 46 47 48 49 50

000
ASUS45 KCYS 161710
RWRWY

WYOMING REGIONAL WEATHER ROUNDUP
NATIONAL WEATHER SERVICE CHEYENNE WY
1100 AM MDT MON OCT 16 2017

NOTE:  "FAIR" INDICATES FEW OR NO CLOUDS BELOW 12,000 FEET
WITH NO SIGNIFICANT WEATHER AND/OR OBSTRUCTIONS TO VISIBILITY.

WYZ001-161800-
YELLOWSTONE NATIONAL PARK

CITY           SKY/WX    TMP DP  RH WIND       PRES   REMARKS
LK YELLOWSTONE   N/A     40  30  67 VRB3      30.46R
W YELLOWSTONE  NOT AVBL

$$
WYZ002>013-054>058-071-098>099-161800-
NORTHERN WYOMING

CITY           SKY/WX    TMP DP  RH WIND       PRES   REMARKS
JACKSON        FAIR      34  27  75 CALM      30.46F
CODY           FAIR      60   9  13 W12G32    30.25R
GREYBULL       FAIR      49  31  49 VRB3      30.25S
WORLAND        FAIR      51  36  56 VRB3      30.24F
SHERIDAN       FAIR      64  38  38 CALM      30.16R
BUFFALO        FAIR      64  20  18 S6        30.20R
GILLETTE       FAIR      64  25  22 VRB5      30.17S
HULETT         FAIR      59  32  36 W9        30.17S
NEWCASTLE      FAIR      54  27  35 CALM      30.20F

$$
WYZ014>020-022>026-101>103-161800-
CENTRAL WYOMING

CITY           SKY/WX    TMP DP  RH WIND       PRES   REMARKS
BIG PINEY      FAIR      39  23  52 VRB3      30.45S
PINEDALE       FAIR      46  23  39 CALM      30.44F
DUBOIS         FAIR      54   5  14 N18G32    30.33R
LANDER         FAIR      52  33  48 CALM      30.27F
RIVERTON       FAIR      42  30  62 NE5       30.29S
CASPER         FAIR      55  17  22 SW21      30.28R
DOUGLAS        FAIR      66  16  14 W24       30.22S

$$
WYZ021-027>030-104>119-161800-
SOUTHERN WYOMING

CITY           SKY/WX    TMP DP  RH WIND       PRES   REMARKS
EVANSTON       FAIR      52   9  17 SW13      30.47S
KEMMERER       FAIR      50   7  17 W10       30.46S
FORT BRIDGER   FAIR      58   6  12 W15       30.48S
ROCK SPRINGS   FAIR      50  11  20 W6        30.44F
DIXON          FAIR      50  17  26 CALM      30.48F
RAWLINS        FAIR      56   4  12 SW23G30   30.40F
SARATOGA       FAIR      61   3  10 SW17G23   30.43S
LARAMIE        FAIR      60   6  11 W18G25    30.35S
CHEYENNE       FAIR      62   8  12 W21G26    30.31F
TORRINGTON     FAIR      58  28  32 CALM      30.19F
PINE BLUFFS    FAIR      64  18  16 W18G25    30.28S

$$



USA.gov is the U.S. government's official web portal to all federal, state and local government web resources and services.